Lid_Strength_Index
18 18 17 17 17 17 17 16 17 20 19 16 15 14 13 13 12 12 12 10 8 8 7 7 7 6 6 6 6 6 6 5 5 5 5 5 5 5
18 18 18 17 17 17 17 16 16 17 18 15 15 15 14 12 11 12 12 9 9 8 7 7 6 6 6 6 6 6 6 6 6 6 5 5 5 5
18 18 18 17 18 18 17 16 16 16 17 16 15 14 14 13 12 11 11 11 10 8 7 6 6 6 6 6 6 7 7 6 7 7 7 6 6 5
18 18 18 16 17 17 16 16 16 16 16 17 15 14 13 12 12 12 10 10 10 8 7 6 6 6 6 6 6 7 7 7 8 8 8 7 7 6
17 17 17 17 16 16 16 16 16 14 15 15 15 13 12 11 11 11 11 10 9 7 7 7 7 7 6 6 7 7 7 8 8 8 8 7 7 7
17 16 16 16 15 15 15 15 14 14 14 14 14 13 12 10 10 11 12 10 10 9 8 8 7 7 7 7 7 8 8 8 7 7 8 8 8 8
17 15 15 14 12 12 14 14 14 14 14 13 13 12 12 11 11 11 11 11 11 9 11 10 10 10 10 8 9 9 8 7 7 7 8 8 8 8
16 15 14 14 12 10 10 9 10 14 22 19 12 11 11 10 10 11 11 12 15 9 11 13 11 12 10 10 8 8 7 7 7 7 7 7 8 8
15 14 14 13 13 13 11 9 9 8 7 9 10 10 10 9 10 10 12 12 13 11 12 15 12 12 11 10 8 7 8 8 7 7 7 7 8 8
14 14 14 13 13 13 13 12 12 11 10 9 8 8 8 7 8 10 11 13 12 11 11 16 12 13 11 11 9 8 8 7 7 7 6 7 8 8
13 13 13 13 11 9 11 13 11 10 7 6 5 6 6 6 8 11 16 15 16 14 12 13 12 14 13 12 10 8 8 8 8 8 8 7 7 8
14 13 11 12 10 9 10 12 12 11 10 13 12 11 10 11 9 10 12 15 15 17 12 14 14 14 16 12 11 11 11 9 9 8 8 8 8 10
15 14 13 10 8 7 7 9 10 9 12 16 16 15 13 13 12 11 10 12 15 16 13 13 15 15 16 16 14 12 12 11 11 10 9 8 8 8
15 13 13 9 8 7 7 6 5 7 20 21 21 17 15 14 12 11 11 11 12 12 12 13 15 16 17 17 17 14 13 13 12 11 11 10 9 8
11 12 9 8 7 7 6 6 9 16 19 22 20 16 14 13 12 12 12 12 12 12 12 13 14 14 15 17 18 16 16 15 13 12 12 12 12 11
9 10 9 8 8 8 11 9 12 14 15 17 16 14 13 14 15 13 14 15 16 16 13 13 13 14 15 16 16 17 16 17 15 14 13 12 11 11
13 21 20 15 13 13 15 14 14 14 15 16 17 16 15 15 15 14 15 17 18 18 17 15 14 14 14 15 17 17 17 16 14 13 14 14 13 12
12 14 15 15 14 13 13 13 15 15 15 16 18 18 17 17 17 16 17 19 19 19 18 17 17 17 16 15 12 16 15 15 14 13 13 14 14 11
9 10 12 14 14 14 14 15 16 15 15 16 17 17 18 19 19 20 19 19 20 19 19 18 19 18 20 21 16 12 15 15 15 14 13 13 13 11
20 20 18 16 15 15 15 16 16 17 17 17 18 20 21 25 23 21 21 21 21 20 21 20 18 17 19 20 19 16 12 14 14 13 12 12 11 8
26 24 23 21 18 18 19 19 19 19 20 20 21 23 22 27 26 22 21 21 21 22 22 20 17 15 16 16 19 18 15 12 11 13 13 13 13 12
31 31 27 26 24 24 24 22 22 23 21 21 22 23 23 25 24 23 22 22 23 22 21 19 17 17 18 19 20 19 16 14 12 11 11 10 12 14
29 29 28 28 24 24 23 23 23 21 21 21 22 24 25 27 28 22 22 23 23 22 22 19 18 18 19 19 19 19 19 17 16 16 15 10 9 9